[[{"header":{"parameterUnit":"m.s-1","parameterCategory":1,"la1":30.2992,"la2":30.254,"lo1":-89.0895,"lo2":-89.0443,"dy":0.0025,"dx":0.0025,"nx":19,"ny":19,"refTime":"2026-04-21T09:00:00:Z","depth":0,"parameterNumber":2,"parameterNumberName":"U-component_of_WINDS"},"data":[0,0,0,-4.2063,-4.2065,-4.2136,-4.2137,-4.2257,-4.2258,0,0,0,0,0,0,0,0,0,0,0,-4.2059,-4.206,-4.2063,-4.2065,-4.2136,-4.2137,-4.2256,-4.2258,0,0,0,0,0,0,0,0,0,0,0,-4.2058,-4.206,-4.2061,-4.2066,-4.2136,-4.2137,-4.2256,-4.2192,0,0,0,0,0,0,0,0,0,0,-4.2118,-4.213,-4.2059,-4.2062,-4.2066,-4.2136,-4.2137,-4.2189,-4.2196,-4.2237,0,-4.2276,0,-4.2269,-4.2268,-4.2268,0,0,0,-4.2053,-4.2124,-4.2128,-4.2062,-4.2067,-4.2136,-4.2101,-4.2193,-4.2201,-4.2247,-4.2277,-4.2281,-4.2271,-4.2269,-4.2269,-4.2543,-4.2545,0,0,-4.2049,-4.2081,-4.2122,-4.2134,-4.2124,-4.2099,-4.2103,-4.2197,-4.2233,-4.2278,-4.2283,-4.2273,-4.227,-4.2271,-4.2542,-4.2544,0,0,0,-4.2046,-4.2078,-4.2079,-4.213,-4.2141,-4.2101,-4.2106,-4.2229,-4.2227,-4.2285,-4.2275,-4.2271,-4.2272,-4.254,-4.2542,-4.2667,0,0,0,-4.2043,-4.2076,-4.2079,-4.2099,-4.214,-4.2186,-4.2136,-4.222,-4.223,-4.2274,-4.2271,-4.2274,-4.2537,-4.2541,-4.2659,-4.2721,0,0,0,-4.2048,-4.2077,-4.2093,-4.21,-4.2132,-4.2183,-4.2186,-4.2221,-4.2224,-4.2268,-4.2274,-4.2536,-4.254,-4.2652,-4.2709,-4.2805,0,0,0,-4.2063,-4.2201,-4.2095,-4.2245,-4.2132,-4.2259,-4.2185,-4.2278,-4.2331,-4.2271,-4.2538,-4.2542,-4.265,-4.2702,-4.2798,-4.2893,-4.2935,0,0,-4.2254,-4.2225,-4.2311,-4.2218,-4.2373,-4.2246,-4.2419,-4.2436,-4.2411,-4.2501,-4.2507,-4.2662,-4.2709,-4.2804,-4.3154,-4.3188,0,0,0,-4.2382,-4.2445,-4.2479,-4.253,-4.2548,-4.2569,-4.2556,-4.2563,-4.2638,-4.2464,-4.2719,-4.2746,-4.2801,-4.2845,-4.2874,-4.292,-4.2563,-4.2563,-4.2562,-4.2699,-4.2661,-4.2801,-4.2772,-4.2823,-4.281,-4.2849,-4.2857,-4.2801,-4.2863,-4.289,-4.3107,-4.316,-4.3181,-4.323,-4.2934,-4.2935,-4.2935,-4.2936,-4.2978,-4.3062,-4.2987,-4.3097,-4.3056,-4.3148,-4.3141,-4.31,-4.3181,-4.3083,-4.3129,-4.3028,-4.3219,-4.326,-4.2945,-4.2943,-4.2942,-4.2941,-4.294,-4.3184,-4.3218,-4.3224,-4.3297,-4.3358,-4.3322,-4.3405,-4.3363,-4.3325,-4.337,-4.3397,-4.3394,-4.339,-4.3385,-4.3386,-4.3387,-4.3387,-4.3388,-4.3388,-4.3396,-4.3399,-4.3473,-4.3505,-4.3534,-4.3568,-4.3557,-4.3585,-4.3606,-4.357,-4.357,-4.3511,-4.3244,-4.318,-4.34,-4.3398,-4.3396,-4.3395,-4.3394,-4.3699,-4.3624,-4.3739,-4.3769,-4.3804,-4.3869,-4.3814,-4.3876,-4.3892,-4.3935,-4.3866,-4.3675,-4.3642,-4.3619,-4.3565,-4.3872,-4.3872,-4.3872,-4.3872,-4.3875,-4.3854,-4.3963,-4.4014,-4.4059,-4.4022,-4.4156,-4.415,-4.4132,-4.4141,-4.409,-4.4015,-4.3993,-4.3973,-4.3942,-4.3892,-4.4275,-4.4275,-4.4276,-4.406,-4.4042,-4.4163,-4.4145,-4.417,-4.4193,-4.4318,-4.4381,-4.4344,-4.4291,-4.4148,-4.4131,-4.4009,-4.397,-4.3916,-4.387,-4.3776,0,0]},{"header":{"parameterUnit":"m.s-1","parameterCategory":1,"la1":30.2992,"la2":30.254,"lo1":-89.0895,"lo2":-89.0443,"dy":0.0025,"dx":0.0025,"nx":19,"ny":19,"refTime":"2026-04-21T09:00:00:Z","depth":0,"parameterNumber":3,"parameterNumberName":"V-component_of_WINDS"},"data":[0,0,0,-0.2848,-0.2846,-0.2767,-0.2767,-0.2681,-0.268,0,0,0,0,0,0,0,0,0,0,0,-0.2883,-0.2882,-0.2848,-0.2846,-0.2768,-0.2767,-0.2681,-0.268,0,0,0,0,0,0,0,0,0,0,0,-0.2883,-0.2882,-0.2882,-0.2846,-0.2768,-0.2767,-0.2681,-0.2735,0,0,0,0,0,0,0,0,0,0,-0.2809,-0.2853,-0.2882,-0.2882,-0.2846,-0.2768,-0.2767,-0.2737,-0.2732,-0.2724,0,-0.2722,0,-0.27,-0.2676,-0.2676,0,0,0,-0.2838,-0.2857,-0.2826,-0.2882,-0.2845,-0.2768,-0.2801,-0.2734,-0.2728,-0.2716,-0.272,-0.2717,-0.2698,-0.2675,-0.2675,-0.2662,-0.2663,0,0,-0.2842,-0.2874,-0.2831,-0.2822,-0.2838,-0.2803,-0.2798,-0.273,-0.2736,-0.272,-0.2714,-0.2697,-0.2675,-0.2674,-0.2662,-0.2662,0,0,0,-0.286,-0.2878,-0.2847,-0.2826,-0.2811,-0.2801,-0.2795,-0.2739,-0.2726,-0.2713,-0.2696,-0.2675,-0.2674,-0.2661,-0.2662,-0.2711,0,0,0,-0.2863,-0.2888,-0.285,-0.2869,-0.2813,-0.2774,-0.2806,-0.2731,-0.2722,-0.2697,-0.2674,-0.2673,-0.2661,-0.2662,-0.2709,-0.2729,0,0,0,-0.2884,-0.289,-0.2883,-0.2871,-0.2838,-0.2775,-0.2758,-0.2728,-0.2712,-0.2676,-0.2673,-0.2661,-0.2662,-0.2707,-0.2725,-0.2734,0,0,0,-0.2915,-0.2928,-0.2885,-0.2891,-0.2839,-0.2806,-0.2758,-0.2732,-0.2706,-0.2674,-0.2661,-0.2662,-0.2706,-0.2723,-0.2732,-0.2747,-0.2757,0,0,-0.2949,-0.2933,-0.2935,-0.2893,-0.2877,-0.2816,-0.2805,-0.2751,-0.2717,-0.2682,-0.2681,-0.2709,-0.2725,-0.2734,-0.2799,-0.2807,0,0,0,-0.2956,-0.2958,-0.2946,-0.2924,-0.2883,-0.2849,-0.2793,-0.2772,-0.274,-0.2706,-0.2714,-0.2722,-0.2726,-0.2732,-0.2738,-0.2738,-0.2666,-0.2666,-0.2666,-0.3051,-0.3007,-0.3006,-0.2952,-0.2931,-0.2872,-0.285,-0.2811,-0.2774,-0.2776,-0.2766,-0.2811,-0.2819,-0.2823,-0.2824,-0.277,-0.277,-0.277,-0.2771,-0.3096,-0.309,-0.3039,-0.3019,-0.2972,-0.2954,-0.2897,-0.287,-0.2846,-0.2816,-0.2817,-0.2788,-0.2833,-0.2832,-0.2774,-0.2773,-0.2773,-0.2772,-0.2772,-0.3153,-0.3142,-0.3117,-0.3079,-0.3054,-0.2998,-0.2976,-0.2934,-0.2893,-0.2894,-0.2877,-0.2876,-0.287,-0.2889,-0.2889,-0.289,-0.289,-0.289,-0.289,-0.3222,-0.3192,-0.318,-0.3136,-0.3115,-0.3081,-0.302,-0.2998,-0.2961,-0.2932,-0.2931,-0.2893,-0.2846,-0.2836,-0.2892,-0.2892,-0.2891,-0.2891,-0.2891,-0.3284,-0.3263,-0.3244,-0.3223,-0.3167,-0.3143,-0.3089,-0.3045,-0.302,-0.301,-0.297,-0.2943,-0.2924,-0.2918,-0.2909,-0.2981,-0.2981,-0.2981,-0.2981,-0.3332,-0.3318,-0.3288,-0.3256,-0.322,-0.3169,-0.3146,-0.3098,-0.3044,-0.3025,-0.3008,-0.2992,-0.2988,-0.297,-0.2964,-0.2954,-0.3036,-0.3036,-0.3036,-0.3367,-0.3347,-0.3337,-0.3286,-0.3238,-0.3197,-0.3173,-0.3137,-0.3071,-0.3037,-0.3009,-0.3006,-0.298,-0.2974,-0.294,-0.2931,-0.2913,0,0]}]]